Dades meteomassalio
Diari Summary for Maig 25, 2017 Units:  English    Metric   Both
« Previous Day
Next Day »
Diari Semanal Mensual Anual Personalitzat
  Maxima: Minima: Mijana:
Temperatura: TemperatureC °F 12.3 °F 24.2 °F
Rosada: DewpointC °F 5.2 °F 7.3 °F
Humitat: Humidity % 18 % 38 %
Velocitat del vent: WindSpeedKMH mph 0.0 mph 5.2 mph
Racha vent: WindSpeedGustKMH mph - -
Vent:- - ESE
Pressio: PressurehPa in 1010.4 in -
Pluja: 0.0 in    
Historical Graphs
 
 
Tabular Data for Maig 25, 2017
Time Temperature Dew Point Pressure Wind Wind Speed Wind Gust Humidity Rainfall Rate (Hourly) solar Conditions
TemperatureC °F DewpointC °F PressurehPa in Calm     Humidity % HourlyPrecipMM in SolarRadiationWatts/m^2 W/m2 Conditions
00:02 20.7 °F 9.0 °F 1016.5 in ENE 5.6 mph 5.6 mph 47 % 0.0 in 0.0 W/m2 CLR
00:07 20.7 °F 8.7 °F 1016.5 in Calm     46 % 0.0 in 0.0 W/m2 CLR
00:12 20.8 °F 8.4 °F 1016.5 in Calm     45 % 0.0 in 0.0 W/m2 CLR
00:13 20.8 °F 8.4 °F 1016.5 in Calm     45 % 0.0 in 0.0 W/m2 CLR
00:18 20.8 °F 8.8 °F 1016.5 in Calm     46 % 0.0 in 0.0 W/m2 CLR
00:23 20.8 °F 8.4 °F 1016.5 in Calm     45 % 0.0 in 0.0 W/m2 CLR
00:28 20.7 °F 8.0 °F 1016.5 in Calm     44 % 0.0 in 0.0 W/m2 CLR
00:33 20.6 °F 7.9 °F 1016.8 in Calm     44 % 0.0 in 0.0 W/m2 CLR
00:38 20.6 °F 8.2 °F 1016.8 in Calm     45 % 0.0 in 0.0 W/m2 CLR
00:43 20.5 °F 8.2 °F 1016.8 in Calm     45 % 0.0 in 0.0 W/m2 CLR
00:48 20.4 °F 8.1 °F 1016.8 in Calm     45 % 0.0 in 0.0 W/m2 CLR
00:54 20.2 °F 8.2 °F 1016.8 in Calm     46 % 0.0 in 0.0 W/m2 CLR
01:04 19.6 °F 8.0 °F 1016.8 in Calm     47 % 0.0 in 0.0 W/m2 CLR
01:09 19.4 °F 8.2 °F 1016.5 in Calm     48 % 0.0 in 0.0 W/m2 CLR
01:14 19.2 °F 7.9 °F 1016.5 in Calm     48 % 0.0 in 0.0 W/m2 CLR
01:19 18.9 °F 8.2 °F 1016.8 in Calm     50 % 0.0 in 0.0 W/m2 CLR
01:24 18.6 °F 8.3 °F 1016.5 in Calm     51 % 0.0 in 0.0 W/m2 CLR
01:29 18.3 °F 8.0 °F 1016.8 in Calm     51 % 0.0 in 0.0 W/m2 CLR
01:34 18.2 °F 8.2 °F 1016.5 in Calm     52 % 0.0 in 0.0 W/m2 CLR
01:39 17.9 °F 7.9 °F 1016.5 in Calm     52 % 0.0 in 0.0 W/m2 CLR
01:44 17.7 °F 7.9 °F 1016.5 in Calm     53 % 0.0 in 0.0 W/m2 CLR
01:49 17.4 °F 8.1 °F 1016.5 in Calm     54 % 0.0 in 0.0 W/m2 CLR
01:54 17.2 °F 7.8 °F 1016.5 in Calm     54 % 0.0 in 0.0 W/m2 CLR
01:59 17.0 °F 7.9 °F 1016.5 in Calm     55 % 0.0 in 0.0 W/m2 CLR
02:04 16.8 °F 7.9 °F 1016.5 in Calm     56 % 0.0 in 0.0 W/m2 CLR
02:09 16.4 °F 7.9 °F 1016.5 in Calm     57 % 0.0 in 0.0 W/m2 CLR
02:14 16.2 °F 7.6 °F 1016.5 in Calm     57 % 0.0 in 0.0 W/m2 CLR
02:19 16.0 °F 7.7 °F 1016.5 in Calm     58 % 0.0 in 0.0 W/m2 CLR
02:24 15.8 °F 7.6 °F 1016.5 in Calm     58 % 0.0 in 0.0 W/m2 CLR
02:29 15.7 °F 7.7 °F 1016.5 in Calm     59 % 0.0 in 0.0 W/m2 CLR
02:34 15.6 °F 7.6 °F 1016.5 in Calm     59 % 0.0 in 0.0 W/m2 CLR
02:39 15.5 °F 7.5 °F 1016.5 in Calm     59 % 0.0 in 0.0 W/m2 CLR
02:44 15.2 °F 7.5 °F 1016.5 in Calm     60 % 0.0 in 0.0 W/m2 CLR
02:49 15.1 °F 7.4 °F 1016.5 in Calm     60 % 0.0 in 0.0 W/m2 CLR
02:54 15.1 °F 7.4 °F 1016.1 in Calm     60 % 0.0 in 0.0 W/m2 CLR
02:59 15.1 °F 7.6 °F 1016.1 in Calm     61 % 0.0 in 0.0 W/m2 CLR
03:04 14.9 °F 7.5 °F 1016.1 in Calm     61 % 0.0 in 0.0 W/m2 CLR
03:09 14.8 °F 7.4 °F 1016.1 in Calm     61 % 0.0 in 0.0 W/m2 CLR
03:14 14.8 °F 7.3 °F 1016.1 in Calm     61 % 0.0 in 0.0 W/m2 CLR
03:19 14.7 °F 7.3 °F 1016.1 in Calm     61 % 0.0 in 0.0 W/m2 CLR
03:24 14.6 °F 7.1 °F 1016.1 in Calm     61 % 0.0 in 0.0 W/m2 CLR
03:29 14.4 °F 7.2 °F 1016.1 in Calm     62 % 0.0 in 0.0 W/m2 CLR
03:34 14.3 °F 7.1 °F 1016.1 in Calm     62 % 0.0 in 0.0 W/m2 CLR
03:39 14.2 °F 7.1 °F 1015.8 in Calm     62 % 0.0 in 0.0 W/m2 CLR
03:44 14.2 °F 7.1 °F 1016.1 in Calm     62 % 0.0 in 0.0 W/m2 CLR
03:49 14.2 °F 7.0 °F 1015.8 in Calm     62 % 0.0 in 0.0 W/m2 CLR
03:54 14.1 °F 6.9 °F 1015.8 in Calm     62 % 0.0 in 0.0 W/m2 CLR
03:59 14.1 °F 6.9 °F 1015.8 in Calm     62 % 0.0 in 0.0 W/m2 CLR
04:04 14.1 °F 6.9 °F 1015.8 in Calm     62 % 0.0 in 0.0 W/m2 CLR
04:09 13.9 °F 6.8 °F 1015.8 in Calm     62 % 0.0 in 0.0 W/m2 CLR
04:14 13.8 °F 6.7 °F 1015.8 in Calm     62 % 0.0 in 0.0 W/m2 CLR
04:19 13.7 °F 6.8 °F 1015.8 in Calm     63 % 0.0 in 0.0 W/m2 CLR
04:24 13.7 °F 6.7 °F 1015.8 in Calm     63 % 0.0 in 0.0 W/m2 CLR
04:29 13.5 °F 6.6 °F 1015.8 in Calm     63 % 0.0 in 0.0 W/m2 CLR
04:34 13.4 °F 6.8 °F 1015.8 in Calm     64 % 0.0 in 0.0 W/m2 CLR
04:39 13.4 °F 6.7 °F 1015.8 in Calm     64 % 0.0 in 0.0 W/m2 CLR
04:44 13.4 °F 6.7 °F 1015.8 in Calm     64 % 0.0 in 0.0 W/m2 CLR
04:49 13.4 °F 6.7 °F 1015.8 in Calm     64 % 0.0 in 0.0 W/m2 CLR
04:54 13.3 °F 6.7 °F 1015.8 in Calm     64 % 0.0 in 0.0 W/m2 CLR
04:59 13.3 °F 6.6 °F 1015.8 in Calm     64 % 0.0 in 0.0 W/m2 CLR
05:04 13.2 °F 6.6 °F 1015.8 in Calm     64 % 0.0 in 0.0 W/m2 CLR
05:09 13.1 °F 6.4 °F 1015.8 in Calm     64 % 0.0 in 0.0 W/m2 CLR
05:14 13.1 °F 6.4 °F 1015.8 in Calm     64 % 0.0 in 0.0 W/m2 CLR
05:19 13.1 °F 6.4 °F 1015.8 in Calm     64 % 0.0 in 0.0 W/m2 CLR
05:24 13.1 °F 6.4 °F 1015.8 in Calm     64 % 0.0 in 0.0 W/m2 CLR
05:29 12.9 °F 6.5 °F 1015.8 in Calm     65 % 0.0 in 0.0 W/m2 CLR
05:34 12.8 °F 6.3 °F 1015.8 in Calm     65 % 0.0 in 0.0 W/m2 CLR
05:39 12.7 °F 6.5 °F 1015.8 in Calm     66 % 0.0 in 0.0 W/m2 CLR
05:44 12.6 °F 6.4 °F 1015.8 in Calm     66 % 0.0 in 0.0 W/m2 CLR
05:49 12.7 °F 6.3 °F 1015.8 in Calm     65 % 0.0 in 0.0 W/m2 CLR
05:54 12.8 °F 6.1 °F 1015.8 in Calm     64 % 0.0 in 0.0 W/m2 CLR
05:59 12.8 °F 6.2 °F 1015.8 in Calm     64 % 0.0 in 0.0 W/m2 CLR
06:04 12.8 °F 6.2 °F 1015.8 in Calm     64 % 0.0 in 0.0 W/m2 CLR
06:09 12.9 °F 6.2 °F 1015.8 in Calm     64 % 0.0 in 0.0 W/m2 CLR
06:14 12.9 °F 6.0 °F 1015.8 in Calm     63 % 0.0 in 0.0 W/m2 CLR
06:19 12.9 °F 6.2 °F 1015.8 in Calm     64 % 0.0 in 0.0 W/m2 CLR
06:24 12.8 °F 6.1 °F 1015.8 in Calm     64 % 0.0 in 0.0 W/m2 OVC
06:29 12.7 °F 6.1 °F 1015.8 in Calm     64 % 0.0 in 0.0 W/m2 OVC
06:34 12.6 °F 6.0 °F 1015.8 in Calm     64 % 0.0 in 5.0 W/m2 OVC
06:39 12.6 °F 6.2 °F 1015.8 in Calm     65 % 0.0 in 7.0 W/m2 BKN
06:44 12.4 °F 6.3 °F 1015.8 in Calm     66 % 0.0 in 9.0 W/m2 BKN
06:49 12.3 °F 6.2 °F 1015.8 in Calm     66 % 0.0 in 11.0 W/m2 BKN
06:54 12.4 °F 6.2 °F 1015.8 in Calm     66 % 0.0 in 14.0 W/m2 BKN
06:59 12.4 °F 6.1 °F 1015.8 in Calm     65 % 0.0 in 16.0 W/m2 BKN
07:04 12.5 °F 6.1 °F 1015.8 in Calm     65 % 0.0 in 19.0 W/m2 BKN
07:09 12.6 °F 6.2 °F 1015.8 in Calm     65 % 0.0 in 26.0 W/m2 BKN
07:14 12.7 °F 6.1 °F 1015.8 in Calm     64 % 0.0 in 33.0 W/m2 BKN
07:19 12.8 °F 6.1 °F 1015.8 in Calm     64 % 0.0 in 47.0 W/m2 SCT
07:24 13.0 °F 6.3 °F 1016.1 in Calm     64 % 0.0 in 58.0 W/m2 SCT
07:29 13.3 °F 6.4 °F 1016.1 in Calm     63 % 0.0 in 70.0 W/m2 FEW
07:34 13.7 °F 6.5 °F 1016.1 in Calm     62 % 0.0 in 84.0 W/m2 FEW
07:39 13.9 °F 6.6 °F 1015.8 in Calm     61 % 0.0 in 97.0 W/m2 FEW
07:45 14.3 °F 6.9 °F 1016.1 in Calm     61 % 0.0 in 114.0 W/m2 CLR
07:50 14.6 °F 6.7 °F 1015.8 in Calm     59 % 0.0 in 130.0 W/m2 CLR
07:55 15.0 °F 7.1 °F 1015.8 in Calm     59 % 0.0 in 146.0 W/m2 CLR
08:00 15.3 °F 7.1 °F 1015.8 in Calm     58 % 0.0 in 163.0 W/m2 CLR
08:05 15.6 °F 7.1 °F 1015.8 in Calm     57 % 0.0 in 185.0 W/m2 CLR
08:10 15.9 °F 7.2 °F 1015.8 in Calm     56 % 0.0 in 202.0 W/m2 CLR
08:15 16.4 °F 7.3 °F 1015.8 in Calm     55 % 0.0 in 218.0 W/m2 CLR
08:20 16.8 °F 7.7 °F 1015.8 in Calm     55 % 0.0 in 234.0 W/m2 CLR
08:25 17.2 °F 7.8 °F 1015.8 in Calm     54 % 0.0 in 253.0 W/m2 CLR
08:30 17.8 °F 7.8 °F 1015.8 in Calm     52 % 0.0 in 269.0 W/m2 CLR
08:35 18.2 °F 7.6 °F 1015.8 in Calm     50 % 0.0 in 285.0 W/m2 CLR
08:40 18.8 °F 7.6 °F 1015.8 in Calm     48 % 0.0 in 299.0 W/m2 CLR
08:45 19.4 °F 7.8 °F 1015.8 in Calm     47 % 0.0 in 318.0 W/m2 CLR
08:50 19.8 °F 8.2 °F 1015.5 in Calm     47 % 0.0 in 334.0 W/m2 CLR
08:55 20.1 °F 8.4 °F 1015.8 in Calm     47 % 0.0 in 352.0 W/m2 CLR
09:00 20.2 °F 7.8 °F 1015.5 in Calm     45 % 0.0 in 366.0 W/m2 CLR
09:05 20.4 °F 8.1 °F 1015.8 in Calm     45 % 0.0 in 383.0 W/m2 CLR
09:10 20.9 °F 8.2 °F 1015.5 in Calm     44 % 0.0 in 399.0 W/m2 CLR
09:15 21.6 °F 8.1 °F 1015.5 in Calm     42 % 0.0 in 417.0 W/m2 CLR
09:20 21.8 °F 7.9 °F 1015.5 in Calm     41 % 0.0 in 432.0 W/m2 CLR
09:25 22.1 °F 8.2 °F 1015.5 in Calm     41 % 0.0 in 445.0 W/m2 CLR
09:30 22.6 °F 7.9 °F 1015.5 in Calm     39 % 0.0 in 461.0 W/m2 CLR
09:35 23.3 °F 8.6 °F 1015.5 in Calm     39 % 0.0 in 478.0 W/m2 CLR
09:40 23.9 °F 8.3 °F 1015.5 in Calm     37 % 0.0 in 494.0 W/m2 CLR
09:45 24.2 °F 7.7 °F 1015.5 in Calm     35 % 0.0 in 510.0 W/m2 CLR
09:50 24.3 °F 7.9 °F 1015.5 in Calm     35 % 0.0 in 529.0 W/m2 CLR
09:55 24.7 °F 8.7 °F 1015.5 in Calm     36 % 0.0 in 540.0 W/m2 CLR
10:00 25.1 °F 8.5 °F 1015.5 in Calm     35 % 0.0 in 557.0 W/m2 CLR
10:05 25.3 °F 8.3 °F 1015.5 in Calm     34 % 0.0 in 571.0 W/m2 CLR
10:10 25.6 °F 9.0 °F 1015.5 in Calm     35 % 0.0 in 587.0 W/m2 CLR
10:15 25.8 °F 8.8 °F 1015.1 in ENE 6.4 mph 6.4 mph 34 % 0.0 in 601.0 W/m2 CLR
10:20 26.2 °F 8.6 °F 1015.1 in Calm     33 % 0.0 in 617.0 W/m2 CLR
10:25 26.6 °F 8.1 °F 1015.1 in Calm     31 % 0.0 in 629.0 W/m2 CLR
10:30 26.9 °F 8.4 °F 1015.1 in Calm     31 % 0.0 in 642.0 W/m2 CLR
10:35 27.3 °F 7.7 °F 1015.1 in Calm     29 % 0.0 in 659.0 W/m2 CLR
10:40 27.6 °F 7.9 °F 1015.1 in Calm     29 % 0.0 in 671.0 W/m2 CLR
10:45 27.8 °F 7.1 °F 1015.1 in Calm     27 % 0.0 in 686.0 W/m2 CLR
10:50 27.9 °F 7.2 °F 1014.8 in Calm     27 % 0.0 in 698.0 W/m2 CLR
10:55 28.1 °F 7.9 °F 1014.8 in ENE 1.9 mph   28 % 0.0 in 712.0 W/m2 CLR
11:00 28.5 °F 7.7 °F 1014.8 in Calm     27 % 0.0 in 722.0 W/m2 CLR
11:05 28.8 °F 7.4 °F 1014.8 in Calm     26 % 0.0 in 737.0 W/m2 CLR
11:10 29.0 °F 8.1 °F 1014.8 in ENE 5.6 mph 5.6 mph 27 % 0.0 in 747.0 W/m2 CLR
11:15 29.1 °F 8.2 °F 1014.4 in ESE 3.7 mph 3.7 mph 27 % 0.0 in 759.0 W/m2 CLR
11:18 29.2 °F 8.3 °F 1014.4 in Calm     27 % 0.0 in 765.0 W/m2 CLR
11:23 29.3 °F 8.4 °F 1014.4 in ENE 7.4 mph 7.4 mph 27 % 0.0 in 775.0 W/m2 CLR
11:28 29.4 °F 8.4 °F 1014.4 in North 5.6 mph   27 % 0.0 in 788.0 W/m2 CLR
11:33 29.4 °F 9.0 °F 1014.4 in ENE 6.4 mph 6.4 mph 28 % 0.0 in 800.0 W/m2 CLR
11:38 29.6 °F 9.2 °F 1014.4 in NE 11.1 mph 11.1 mph 28 % 0.0 in 807.0 W/m2 CLR
11:43 29.4 °F 9.0 °F 1014.1 in NNE 11.1 mph 11.1 mph 28 % 0.0 in 816.0 W/m2 CLR
11:48 29.4 °F 9.6 °F 1014.1 in ENE 14.8 mph 14.8 mph 29 % 0.0 in 826.0 W/m2 CLR
11:53 29.5 °F 10.1 °F 1014.1 in NNE 13.0 mph 13.0 mph 30 % 0.0 in 837.0 W/m2 CLR
11:58 29.6 °F 9.7 °F 1014.1 in ENE 13.0 mph 13.0 mph 29 % 0.0 in 846.0 W/m2 CLR
12:03 29.4 °F 9.6 °F 1014.1 in ENE 11.3 mph 11.3 mph 29 % 0.0 in 849.0 W/m2 CLR
12:08 29.7 °F 9.7 °F 1014.1 in NE 14.8 mph 14.8 mph 29 % 0.0 in 860.0 W/m2 CLR
12:13 29.9 °F 9.9 °F 1014.1 in NE 3.2 mph 3.4 mph 29 % 0.0 in 868.0 W/m2 CLR
12:18 30.2 °F 9.7 °F 1014.1 in ENE 9.3 mph 9.3 mph 28 % 0.0 in 874.0 W/m2 CLR
12:23 30.4 °F 9.3 °F 1014.1 in Calm     27 % 0.0 in 882.0 W/m2 CLR
12:28 30.7 °F 9.0 °F 1014.1 in NE 9.3 mph 9.3 mph 26 % 0.0 in 891.0 W/m2 CLR
12:33 30.7 °F 7.8 °F 1013.8 in Calm     24 % 0.0 in 900.0 W/m2 CLR
12:38 30.5 °F 8.8 °F 1013.8 in NE 11.1 mph 11.1 mph 26 % 0.0 in 907.0 W/m2 CLR
12:43 30.6 °F 9.5 °F 1013.8 in ENE 11.1 mph 11.1 mph 27 % 0.0 in 911.0 W/m2 CLR
12:48 30.9 °F 9.2 °F 1013.8 in North 9.7 mph 9.7 mph 26 % 0.0 in 919.0 W/m2 CLR
12:53 30.7 °F 9.0 °F 1013.8 in NNE 6.4 mph 6.4 mph 26 % 0.0 in 921.0 W/m2 CLR
12:58 30.9 °F 9.2 °F 1013.8 in NNE 9.3 mph 9.3 mph 26 % 0.0 in 925.0 W/m2 CLR
13:03 31.2 °F 8.2 °F 1013.4 in ENE 11.1 mph 11.1 mph 24 % 0.0 in 928.0 W/m2 CLR
13:08 31.3 °F 8.3 °F 1013.4 in NNE 9.7 mph 9.7 mph 24 % 0.0 in 935.0 W/m2 CLR
13:13 31.5 °F 7.8 °F 1013.4 in North 3.7 mph   23 % 0.0 in 940.0 W/m2 CLR
13:18 31.8 °F 8.1 °F 1013.4 in East 8.0 mph 8.0 mph 23 % 0.0 in 942.0 W/m2 CLR
13:23 31.7 °F 8.0 °F 1013.1 in East 9.7 mph 9.7 mph 23 % 0.0 in 944.0 W/m2 CLR
13:28 31.6 °F 7.9 °F 1013.1 in NE 11.1 mph 11.1 mph 23 % 0.0 in 946.0 W/m2 CLR
13:33 31.8 °F 8.1 °F 1013.1 in ENE 14.8 mph 14.8 mph 23 % 0.0 in 944.0 W/m2 CLR
13:38 32.0 °F 7.6 °F 1013.1 in Calm   1.0 mph 22 % 0.0 in 946.0 W/m2 CLR
13:44 32.2 °F 7.8 °F 1013.1 in Calm     22 % 0.0 in 949.0 W/m2 CLR
13:49 32.4 °F 7.9 °F 1013.1 in ENE 11.1 mph 11.1 mph 22 % 0.0 in 953.0 W/m2 CLR
13:54 32.4 °F 7.3 °F 1013.1 in NE 11.1 mph 11.1 mph 21 % 0.0 in 951.0 W/m2 CLR
13:59 32.6 °F 7.4 °F 1012.8 in ENE 18.5 mph 18.5 mph 21 % 0.0 in 949.0 W/m2 CLR
14:04 32.6 °F 7.4 °F 1012.8 in NE 11.1 mph 11.1 mph 21 % 0.0 in 947.0 W/m2 CLR
14:09 32.5 °F 7.3 °F 1012.8 in NNW 9.3 mph 9.3 mph 21 % 0.0 in 946.0 W/m2 CLR
14:14 32.5 °F 7.3 °F 1012.8 in NNW 7.4 mph 7.4 mph 21 % 0.0 in 942.0 W/m2 CLR
14:19 32.3 °F 7.2 °F 1012.8 in West 11.1 mph 11.1 mph 21 % 0.0 in 942.0 W/m2 CLR
14:24 32.7 °F 7.6 °F 1012.4 in NE 13.0 mph 13.0 mph 21 % 0.0 in 940.0 W/m2 CLR
14:29 33.0 °F 7.1 °F 1012.4 in ENE 16.7 mph 16.7 mph 20 % 0.0 in 940.0 W/m2 CLR
14:34 32.7 °F 6.8 °F 1012.4 in Calm   0.3 mph 20 % 0.0 in 935.0 W/m2 CLR
14:39 33.0 °F 7.1 °F 1012.4 in East 11.1 mph 11.1 mph 20 % 0.0 in 935.0 W/m2 CLR
14:44 32.9 °F 6.9 °F 1012.4 in ENE 18.5 mph 18.5 mph 20 % 0.0 in 930.0 W/m2 CLR
14:49 32.8 °F 6.1 °F 1012.4 in Calm     19 % 0.0 in 930.0 W/m2 CLR
14:54 32.7 °F 6.1 °F 1012.1 in Calm     19 % 0.0 in 925.0 W/m2 CLR
14:59 32.8 °F 6.2 °F 1012.1 in South 5.6 mph 5.6 mph 19 % 0.0 in 919.0 W/m2 CLR
15:04 32.8 °F 6.2 °F 1012.1 in Calm     19 % 0.0 in 916.0 W/m2 CLR
15:09 33.1 °F 7.2 °F 1012.1 in WNW 5.6 mph 5.6 mph 20 % 0.0 in 911.0 W/m2 CLR
15:14 33.5 °F 6.7 °F 1011.7 in NNE 5.6 mph 5.6 mph 19 % 0.0 in 904.0 W/m2 CLR
15:19 33.7 °F 6.1 °F 1012.1 in ESE 7.4 mph 7.4 mph 18 % 0.0 in 896.0 W/m2 CLR
15:24 33.4 °F 5.8 °F 1011.7 in ENE 16.7 mph 16.7 mph 18 % 0.0 in 891.0 W/m2 CLR
15:29 33.3 °F 6.6 °F 1011.7 in ESE 5.6 mph 5.6 mph 19 % 0.0 in 884.0 W/m2 CLR
15:34 33.5 °F 5.9 °F 1011.7 in East 13.0 mph 13.0 mph 18 % 0.0 in 875.0 W/m2 CLR
15:39 33.5 °F 6.7 °F 1011.7 in East 3.7 mph 3.7 mph 19 % 0.0 in 872.0 W/m2 CLR
15:44 33.8 °F 6.2 °F 1011.7 in North 9.3 mph 9.3 mph 18 % 0.0 in 858.0 W/m2 CLR
15:49 33.8 °F 6.2 °F 1011.7 in ENE 11.1 mph 11.1 mph 18 % 0.0 in 851.0 W/m2 CLR
15:54 33.8 °F 6.2 °F 1011.4 in ENE 9.3 mph 9.3 mph 18 % 0.0 in 837.0 W/m2 CLR
16:04 33.6 °F 6.8 °F 1011.4 in ENE 5.6 mph 5.6 mph 19 % 0.0 in 819.0 W/m2 CLR
16:09 33.5 °F 7.4 °F 1011.4 in ENE 13.0 mph 13.0 mph 20 % 0.0 in 810.0 W/m2 CLR
16:14 33.2 °F 7.2 °F 1011.1 in SSE 13.0 mph 13.0 mph 20 % 0.0 in 798.0 W/m2 CLR
16:19 33.1 °F 7.8 °F 1011.1 in East 18.5 mph 18.5 mph 21 % 0.0 in 784.0 W/m2 CLR
16:24 33.1 °F 7.2 °F 1011.1 in ENE 9.3 mph 9.3 mph 20 % 0.0 in 775.0 W/m2 CLR
16:29 33.3 °F 7.3 °F 1011.1 in East 19.3 mph 19.3 mph 20 % 0.0 in 768.0 W/m2 CLR
16:34 33.0 °F 7.8 °F 1011.4 in East 13.0 mph 13.0 mph 21 % 0.0 in 758.0 W/m2 CLR
16:39 33.2 °F 7.9 °F 1011.1 in South 14.8 mph 14.8 mph 21 % 0.0 in 744.0 W/m2 CLR
16:44 32.9 °F 8.4 °F 1011.1 in East 18.5 mph 18.5 mph 22 % 0.0 in 731.0 W/m2 CLR
16:49 32.7 °F 8.9 °F 1011.1 in ESE 20.4 mph 20.4 mph 23 % 0.0 in 721.0 W/m2 CLR
16:54 32.6 °F 8.8 °F 1011.1 in East 13.0 mph 13.0 mph 23 % 0.0 in 707.0 W/m2 CLR
16:59 32.7 °F 8.2 °F 1011.1 in ESE 11.3 mph 11.3 mph 22 % 0.0 in 691.0 W/m2 CLR
17:04 32.7 °F 8.8 °F 1011.1 in SE 16.7 mph 16.7 mph 23 % 0.0 in 680.0 W/m2 CLR
17:09 32.6 °F 8.8 °F 1011.1 in ESE 11.1 mph 11.1 mph 23 % 0.0 in 670.0 W/m2 CLR
17:14 32.7 °F 8.2 °F 1011.1 in ESE 18.5 mph 18.5 mph 22 % 0.0 in 659.0 W/m2 CLR
17:16 32.7 °F 8.2 °F 1011.1 in SE 11.1 mph 11.1 mph 22 % 0.0 in 652.0 W/m2 CLR
17:21 32.6 °F 8.1 °F 1011.1 in SE 11.3 mph 11.3 mph 22 % 0.0 in 636.0 W/m2 CLR
17:27 32.4 °F 8.6 °F 1011.1 in SE 5.6 mph   23 % 0.0 in 628.0 W/m2 CLR
17:31 32.5 °F 8.7 °F 1011.1 in SE 14.5 mph 14.5 mph 23 % 0.0 in 612.0 W/m2 CLR
17:36 32.6 °F 8.1 °F 1011.1 in ESE 18.5 mph 18.5 mph 22 % 0.0 in 594.0 W/m2 CLR
17:42 32.7 °F 8.2 °F 1011.1 in SE 14.8 mph 14.8 mph 22 % 0.0 in 582.0 W/m2 CLR
17:47 32.6 °F 8.1 °F 1011.1 in East 11.1 mph 11.1 mph 22 % 0.0 in 570.0 W/m2 CLR
17:52 32.6 °F 8.1 °F 1010.7 in SE 11.1 mph 11.1 mph 22 % 0.0 in 554.0 W/m2 CLR
17:57 32.4 °F 8.0 °F 1010.7 in SSE 14.8 mph 14.8 mph 22 % 0.0 in 541.0 W/m2 CLR
18:02 32.6 °F 8.1 °F 1011.1 in ESE 9.3 mph 9.3 mph 22 % 0.0 in 524.0 W/m2 CLR
18:07 32.6 °F 8.1 °F 1010.7 in ESE 14.8 mph 14.8 mph 22 % 0.0 in 510.0 W/m2 CLR
18:10 32.5 °F 8.1 °F 1010.7 in SE 17.7 mph 17.7 mph 22 % 0.0 in 501.0 W/m2 CLR
18:15 32.1 °F 7.7 °F 1010.7 in ESE 16.7 mph 16.7 mph 22 % 0.0 in 487.0 W/m2 CLR
18:16 32.1 °F 7.7 °F 1010.7 in East 16.7 mph 16.7 mph 22 % 0.0 in 487.0 W/m2 CLR
18:21 32.0 °F 8.3 °F 1010.7 in SSE 16.1 mph 16.1 mph 23 % 0.0 in 473.0 W/m2 CLR
18:26 31.9 °F 7.6 °F 1010.7 in ESE 18.5 mph 18.5 mph 22 % 0.0 in 455.0 W/m2 CLR
18:31 31.9 °F 7.5 °F 1010.7 in East 12.9 mph 12.9 mph 22 % 0.0 in 439.0 W/m2 CLR
18:36 31.9 °F 7.5 °F 1010.7 in SE 22.2 mph 22.2 mph 22 % 0.0 in 427.0 W/m2 CLR
18:41 31.9 °F 7.6 °F 1010.7 in ESE 14.8 mph 14.8 mph 22 % 0.0 in 413.0 W/m2 CLR
18:46 31.8 °F 7.4 °F 1010.7 in ESE 18.5 mph 18.5 mph 22 % 0.0 in 397.0 W/m2 CLR
18:51 31.7 °F 7.3 °F 1010.7 in ESE 24.1 mph 24.1 mph 22 % 0.0 in 378.0 W/m2 CLR
18:56 31.5 °F 7.2 °F 1010.4 in ESE 18.5 mph 18.5 mph 22 % 0.0 in 364.0 W/m2 CLR
19:01 31.4 °F 7.2 °F 1010.4 in ESE 18.5 mph 18.5 mph 22 % 0.0 in 348.0 W/m2 CLR
19:02 31.4 °F 7.2 °F 1010.4 in SE 18.5 mph 18.5 mph 22 % 0.0 in 345.0 W/m2 CLR
19:07 31.4 °F 7.1 °F 1010.4 in SE 14.8 mph 14.8 mph 22 % 0.0 in 329.0 W/m2 CLR
19:12 31.4 °F 7.1 °F 1010.4 in ESE 18.5 mph 18.5 mph 22 % 0.0 in 311.0 W/m2 CLR
19:17 31.2 °F 6.9 °F 1010.4 in SE 17.7 mph 17.7 mph 22 % 0.0 in 299.0 W/m2 CLR
19:22 31.0 °F 6.8 °F 1010.4 in ESE 18.5 mph 18.5 mph 22 % 0.0 in 281.0 W/m2 CLR
19:27 31.0 °F 7.4 °F 1010.4 in ESE 11.1 mph 11.1 mph 23 % 0.0 in 264.0 W/m2 CLR
19:32 30.9 °F 6.7 °F 1010.4 in SSE 19.3 mph 19.3 mph 22 % 0.0 in 246.0 W/m2 CLR
19:37 30.7 °F 7.2 °F 1010.4 in ESE 14.8 mph 14.8 mph 23 % 0.0 in 230.0 W/m2 CLR
19:42 30.6 °F 6.4 °F 1010.4 in SSE 18.5 mph 18.5 mph 22 % 0.0 in 214.0 W/m2 CLR
19:47 30.5 °F 6.4 °F 1010.4 in SE 14.5 mph 14.5 mph 22 % 0.0 in 199.0 W/m2 CLR
19:52 30.4 °F 5.6 °F 1010.7 in SE 14.8 mph 14.8 mph 21 % 0.0 in 178.0 W/m2 CLR
19:53 30.4 °F 5.6 °F 1010.7 in SE 16.1 mph 16.1 mph 21 % 0.0 in 178.0 W/m2 CLR
19:58 30.3 °F 5.5 °F 1010.7 in SSE 18.5 mph 18.5 mph 21 % 0.0 in 158.0 W/m2 CLR
20:03 30.2 °F 6.2 °F 1010.7 in SE 18.5 mph 18.5 mph 22 % 0.0 in 141.0 W/m2 CLR
20:08 30.1 °F 6.0 °F 1010.4 in SE 14.5 mph 14.5 mph 22 % 0.0 in 125.0 W/m2 CLR
20:13 29.9 °F 5.9 °F 1010.7 in SE 9.7 mph 9.7 mph 22 % 0.0 in 109.0 W/m2 CLR
20:18 29.8 °F 5.8 °F 1010.7 in SE 11.1 mph 11.1 mph 22 % 0.0 in 93.0 W/m2 CLR
20:23 29.7 °F 5.7 °F 1010.7 in SE 11.1 mph 11.1 mph 22 % 0.0 in 79.0 W/m2 FEW
20:28 29.6 °F 6.3 °F 1010.7 in SE 11.1 mph 11.1 mph 23 % 0.0 in 67.0 W/m2 FEW
20:33 29.5 °F 6.2 °F 1010.7 in SSE 14.8 mph 14.8 mph 23 % 0.0 in 56.0 W/m2 SCT
20:38 29.4 °F 6.1 °F 1010.7 in SSE 9.7 mph 10.6 mph 23 % 0.0 in 39.0 W/m2 BKN
20:43 29.2 °F 5.9 °F 1010.7 in SSE 14.8 mph 14.8 mph 23 % 0.0 in 33.0 W/m2 BKN
20:48 29.1 °F 5.2 °F 1010.7 in SSE 9.3 mph 9.3 mph 22 % 0.0 in 26.0 W/m2 BKN
20:53 28.9 °F 5.7 °F 1011.1 in SSE 13.0 mph 13.0 mph 23 % 0.0 in 19.0 W/m2 BKN
20:58 28.8 °F 5.6 °F 1011.1 in SE 7.4 mph 7.4 mph 23 % 0.0 in 16.0 W/m2 BKN
21:03 28.6 °F 6.1 °F 1011.1 in SE 9.3 mph 9.3 mph 24 % 0.0 in 14.0 W/m2 BKN
21:08 28.4 °F 6.5 °F 1011.1 in SSE 7.4 mph 7.4 mph 25 % 0.0 in 11.0 W/m2 BKN
21:13 28.3 °F 6.9 °F 1011.1 in SSE 7.4 mph 7.4 mph 26 % 0.0 in 7.0 W/m2 BKN
21:18 28.1 °F 6.8 °F 1011.1 in SSE 7.4 mph 7.4 mph 26 % 0.0 in 0.0 W/m2 OVC
21:23 27.9 °F 6.7 °F 1011.1 in SSE 5.6 mph 5.6 mph 26 % 0.0 in 0.0 W/m2 OVC
21:28 27.7 °F 7.0 °F 1011.1 in SSE 7.4 mph 7.4 mph 27 % 0.0 in 0.0 W/m2 OVC
21:33 27.6 °F 7.4 °F 1011.4 in Calm     28 % 0.0 in 0.0 W/m2 CLR
21:38 27.3 °F 7.2 °F 1011.4 in Calm     28 % 0.0 in 0.0 W/m2 CLR
21:43 27.0 °F 7.9 °F 1011.4 in South 5.6 mph 5.6 mph 30 % 0.0 in 0.0 W/m2 CLR
21:48 26.8 °F 7.7 °F 1011.7 in SSE 5.6 mph 5.6 mph 30 % 0.0 in 0.0 W/m2 CLR
21:53 26.7 °F 7.7 °F 1011.7 in South 5.6 mph 5.6 mph 30 % 0.0 in 0.0 W/m2 CLR
21:58 26.6 °F 7.6 °F 1011.7 in Calm     30 % 0.0 in 0.0 W/m2 CLR
22:03 26.4 °F 7.4 °F 1011.7 in South 8.0 mph 8.0 mph 30 % 0.0 in 0.0 W/m2 CLR
22:08 26.4 °F 7.4 °F 1011.7 in South 3.2 mph 3.2 mph 30 % 0.0 in 0.0 W/m2 CLR
22:13 26.3 °F 7.3 °F 1011.7 in South 3.7 mph 3.7 mph 30 % 0.0 in 0.0 W/m2 CLR
22:18 26.1 °F 7.2 °F 1011.7 in Calm     30 % 0.0 in 0.0 W/m2 CLR
22:23 25.9 °F 7.1 °F 1012.1 in Calm     30 % 0.0 in 0.0 W/m2 CLR
22:28 25.7 °F 6.8 °F 1012.1 in Calm     30 % 0.0 in 0.0 W/m2 CLR
22:33 25.7 °F 6.8 °F 1012.1 in Calm     30 % 0.0 in 0.0 W/m2 CLR
22:38 25.6 °F 6.2 °F 1012.1 in South 5.6 mph 5.6 mph 29 % 0.0 in 0.0 W/m2 CLR
22:43 25.6 °F 6.7 °F 1012.1 in Calm     30 % 0.0 in 0.0 W/m2 CLR
22:48 25.3 °F 6.5 °F 1012.1 in Calm     30 % 0.0 in 0.0 W/m2 CLR
22:53 25.2 °F 6.3 °F 1012.1 in Calm     30 % 0.0 in 0.0 W/m2 CLR
22:59 24.9 °F 6.7 °F 1012.1 in Calm     31 % 0.0 in 0.0 W/m2 CLR
23:04 24.7 °F 6.4 °F 1012.1 in Calm     31 % 0.0 in 0.0 W/m2 CLR
23:09 24.6 °F 6.3 °F 1012.1 in Calm     31 % 0.0 in 0.0 W/m2 CLR
23:14 24.4 °F 6.6 °F 1012.1 in Calm     32 % 0.0 in 0.0 W/m2 CLR
23:19 24.2 °F 6.5 °F 1012.1 in Calm     32 % 0.0 in 0.0 W/m2 CLR
23:24 24.1 °F 6.3 °F 1012.1 in Calm     32 % 0.0 in 0.0 W/m2 CLR
23:29 23.8 °F 6.1 °F 1012.4 in Calm     32 % 0.0 in 0.0 W/m2 CLR
23:34 23.5 °F 6.3 °F 1012.4 in Calm     33 % 0.0 in 0.0 W/m2 CLR
23:39 23.1 °F 5.9 °F 1012.4 in Calm     33 % 0.0 in 0.0 W/m2 CLR
23:44 23.0 °F 5.8 °F 1012.4 in Calm     33 % 0.0 in 0.0 W/m2 CLR
23:49 22.9 °F 5.8 °F 1012.4 in Calm     33 % 0.0 in 0.0 W/m2 CLR
23:54 22.8 °F 5.7 °F 1012.4 in Calm     33 % 0.0 in 0.0 W/m2 CLR
23:59 22.6 °F 6.4 °F 1012.4 in Calm     35 % 0.0 in 0.0 W/m2 CLR
Lo Temps de Massalio
Compliments of Weather Underground - 1.25 mb